Location: Buckland
(65.9785°N, 161.1281°W)
Time: 14:52:25
(UTC+00:00)

Transit 4A - Pass Details

Date: 11 October 2022
Orbit: 871 x 972 km, 66.8° (Epoch: 29 November)

Event Time Altitude Azimuth Distance (km) Brightness Sun altitude
Exits shadow 10:06:47 27° 74° (ENE) 1,663 9.2 -31.0°
Drops below altitude 10° 10:09:15 10° 73° (ENE) 2,549 10.3 -31.0°
Sets 10:11:43 0° 74° (ENE) 3,481 11.0 -31.0°
